Location: Village de las Huertas
(35.3014°N, 106.4095°W)
Time: 08:51:02
(UTC+00:00)

ATLAS 3B R/B - Pass Details

Date: 29 October 2020
Orbit: 1014 x 1181 km, 63.8° (Epoch: 23 November)

Event Time Altitude Azimuth Distance (km) Brightness Sun altitude
Exits shadow 12:44:57 10° 281° (W) 2,766 4.2 -8.8°
Maximum altitude 12:49:00 17° 320° (NW) 2,308 4.0 -7.9°
Drops below altitude 10° 12:53:15 10° 0° (N) 2,831 4.8 -7.1°
Sets 12:56:58 0° 20° (NNE) 3,810 5.7 -6.4°
